Lid_Strength_Index
7 7 7 7 7 7 8 7 9 8 8 6 6 5 5 4 4 5 4 4 3 3 3 3 3 2 1 1 1 1 1 2 2 1 -0 0 1 1 1 1 1 1 1 1
8 7 7 8 7 7 7 7 7 7 7 5 5 4 4 5 5 5 4 4 4 3 3 3 3 2 2 1 2 2 4 4 1 1 1 1 0 -0 -0 1 1 1 1 1
10 7 8 9 7 7 7 6 7 8 6 5 5 4 4 4 4 4 4 4 4 4 3 3 3 2 3 2 2 3 4 2 2 2 2 2 3 1 1 1 1 1 1 1
9 8 13 7 5 6 7 6 6 6 5 5 4 4 4 4 4 4 4 3 3 3 3 2 2 2 2 2 1 1 2 2 2 2 1 1 2 3 2 1 1 1 1 1
10 10 8 7 6 6 7 7 5 6 5 4 4 4 6 5 4 4 3 3 3 2 2 2 2 2 2 2 2 2 2 2 2 1 2 1 2 2 1 1 2 1 1 1
9 11 12 7 5 4 5 9 5 5 6 6 5 8 8 5 5 6 4 3 2 2 2 2 1 1 2 2 2 3 2 2 1 1 1 1 2 2 1 1 1 1 1 1
9 10 8 5 5 4 10 9 5 4 5 5 6 5 4 4 4 4 4 3 3 2 2 2 1 1 2 2 2 2 1 1 1 1 1 0 1 1 1 1 1 1 2 1
9 11 12 5 5 8 6 4 4 4 4 4 4 3 3 3 3 2 3 2 2 3 3 3 2 2 2 2 1 1 1 0 1 1 1 1 1 1 1 1 2 2 2 2
8 9 5 4 4 3 3 4 4 4 3 3 4 4 3 3 2 2 2 2 2 2 3 3 2 2 3 2 1 1 1 1 1 1 1 1 1 1 2 2 2 2 2 2
7 6 5 4 3 3 3 3 3 3 3 3 4 3 3 3 3 3 2 2 2 2 2 2 2 2 2 2 1 1 1 1 1 1 1 1 1 1 2 2 2 2 2 3
7 5 5 4 4 3 3 3 3 3 3 3 3 3 3 3 3 3 2 2 2 2 2 2 0 0 1 1 1 2 1 2 2 2 2 2 2 1 2 1 1 2 2 2
8 5 5 5 3 3 3 3 3 3 4 3 3 3 3 3 2 2 2 2 2 2 2 2 2 1 0 -0 1 2 2 2 2 1 1 1 1 1 3 4 6 7 6 3
5 3 4 3 3 3 3 3 3 3 3 3 3 3 2 3 2 3 2 2 2 2 2 2 1 1 1 1 1 1 2 2 2 1 1 1 1 2 2 2 6 7 9 10
3 3 4 4 4 3 3 3 3 3 3 3 3 2 2 2 2 2 3 2 2 2 2 2 2 2 1 1 1 1 1 4 2 2 1 1 1 1 2 2 3 2 5 8
3 3 3 3 3 3 3 3 3 3 3 3 2 2 2 3 3 3 2 2 2 2 2 2 2 2 1 1 1 2 2 2 1 1 1 1 1 1 2 2 2 2 2 7
3 3 3 4 4 4 4 3 4 4 3 3 3 3 2 2 2 2 2 2 3 4 2 2 2 2 1 1 1 1 1 2 1 1 1 1 2 2 2 2 2 2 2 2
5 5 4 4 5 4 4 4 4 3 3 3 3 2 2 3 3 3 3 2 2 2 2 2 2 1 1 1 1 1 1 1 1 1 1 2 2 2 2 2 2 2 2 2
3 4 4 4 5 4 4 3 3 3 3 2 3 3 3 3 4 3 3 2 2 2 2 1 1 1 2 2 1 1 1 1 1 2 1 2 2 2 2 2 2 2 2 2
4 4 4 4 4 3 3 3 3 3 3 3 3 3 3 3 3 3 2 3 3 3 2 1 1 1 2 2 1 1 1 1 2 2 2 2 2 2 2 2 2 2 2 2
4 4 4 4 3 2 3 2 2 3 2 3 3 3 3 3 2 2 2 3 3 2 1 1 2 2 2 1 1 1 1 2 2 2 2 2 2 2 2 3 2 2 2 2
5 5 4 3 3 2 2 2 3 3 3 2 3 3 3 3 2 2 3 3 2 1 1 2 2 1 2 1 1 2 2 2 2 2 2 2 2 2 2 2 2 2 2 2
4 4 3 3 3 3 3 2 2 2 3 2 3 3 3 3 2 2 1 2 1 3 1 1 1 2 1 1 1 1 1 2 2 2 2 2 2 2 2 2 2 2 2 2
3 3 3 3 3 3 3 3 2 2 3 2 3 2 2 2 2 3 4 1 2 4 2 2 3 3 3 3 3 2 2 2 2 2 2 2 2 2 2 2 2 2 2 2
3 3 3 3 2 3 4 3 2 2 2 2 1 1 2 3 2 1 1 3 4 3 2 2 3 3 3 2 2 2 2 2 3 3 2 5 2 2 2 2 2 2 1 2
2 3 3 3 4 4 3 2 2 2 2 1 1 1 1 1 2 1 1 1 4 2 2 2 3 4 2 2 2 3 2 2 2 2 2 2 2 2 2 2 2 2 1 1
2 3 3 2 3 3 2 2 3 2 2 2 2 2 1 1 1 1 1 1 1 2 1 1 1 1 1 1 2 2 2 2 2 2 3 2 2 2 2 2 2 2 1 1
3 5 3 3 2 2 2 2 2 3 2 2 2 1 1 1 1 2 3 1 1 1 1 1 1 1 1 1 1 1 1 1 4 1 1 1 2 1 1 2 2 1 1 1